When you browse on this site, cookies collect data to enhance your experience and personalize the content and advertising you see.
Visit our Privacy Policy to learn more. By continuing to use the site, you agree to this use of cookies and data.
  • In United Kingdom
  • List of Countries
  • For 7 days
  • Water Temperature
  • Weather Map
  • Weather Widgets
  • user-avatar
    Login

    Hourly Weather Maseru

    Today, 20 September, Friday

    Time Temperature Precipitation Wind Pressure Humidity
    00:00 +16°C° 0 mm 1 mps 638 mmHg 40%
    01:00 +15°C° 0 mm 2 mps 638 mmHg 36%
    02:00 +15°C° 0 mm 2 mps 639 mmHg 29%
    03:00 +15°C° 0 mm 2 mps 639 mmHg 36%
    04:00 +14°C° 0 mm 2 mps 639 mmHg 42%
    05:00 +13°C° 0 mm 2 mps 639 mmHg 49%
    06:00 +16°C° 0 mm 2 mps 640 mmHg 43%
    07:00 +18°C° 0 mm 2 mps 641 mmHg 38%
    08:00 +21°C° 0 mm 2 mps 642 mmHg 30%
    09:00 +25°C° 0 mm 3 mps 643 mmHg 25%
    10:00 +27°C° 0 mm 3 mps 643 mmHg 20%
    11:00 +29°C° 0 mm 4 mps 643 mmHg 15%
    12:00 +30°C° 0 mm 4 mps 642 mmHg 14%
    13:00 +32°C° 0 mm 4 mps 642 mmHg 13%
    14:00 +33°C° 0 mm 5 mps 641 mmHg 12%
    15:00 +32°C° 0 mm 5 mps 641 mmHg 12%
    16:00 +32°C° 0 mm 4 mps 640 mmHg 12%
    17:00 +32°C° 0 mm 4 mps 640 mmHg 12%
    18:00 +27°C° 0 mm 3 mps 639 mmHg 17%
    19:00 +23°C° 0 mm 2 mps 638 mmHg 23%
    20:00 +18°C° 0 mm 2 mps 637 mmHg 28%
    21:00 +17°C° 0 mm 2 mps 637 mmHg 27%
    22:00 +17°C° 0 mm 2 mps 637 mmHg 26%
    23:00 +16°C° 0 mm 2 mps 637 mmHg 25%

    Tomorrow, 21 September, Saturday

    Time Temperature Precipitation Wind Pressure Humidity
    00:00 +16°C° 0 mm 2 mps 637 mmHg 27%
    01:00 +15°C° 0 mm 2 mps 637 mmHg 30%
    02:00 +14°C° 0 mm 2 mps 636 mmHg 32%
    03:00 +13°C° 0 mm 2 mps 636 mmHg 32%
    04:00 +13°C° 0 mm 2 mps 636 mmHg 33%
    05:00 +12°C° 0 mm 2 mps 636 mmHg 33%
    06:00 +15°C° 0 mm 2 mps 637 mmHg 28%
    07:00 +18°C° 0 mm 3 mps 638 mmHg 24%
    08:00 +21°C° 0 mm 3 mps 639 mmHg 19%
    09:00 +23°C° 0 mm 5 mps 639 mmHg 17%
    10:00 +27°C° 0 mm 7 mps 639 mmHg 15%
    11:00 +31°C° 0 mm 8 mps 640 mmHg 13%
    12:00 +31°C° 0 mm 8 mps 639 mmHg 13%
    13:00 +32°C° 0 mm 8 mps 638 mmHg 12%
    14:00 +33°C° 0 mm 8 mps 638 mmHg 11%
    15:00 +32°C° 0 mm 8 mps 637 mmHg 12%
    16:00 +32°C° 0 mm 8 mps 637 mmHg 13%
    17:00 +31°C° 0 mm 8 mps 636 mmHg 13%
    18:00 +27°C° 0 mm 6 mps 636 mmHg 17%
    19:00 +25°C° 0 mm 4 mps 635 mmHg 21%
    20:00 +21°C° 0 mm 3 mps 634 mmHg 26%
    21:00 +21°C° 0 mm 3 mps 634 mmHg 25%
    22:00 +20°C° 0 mm 3 mps 634 mmHg 25%
    23:00 +20°C° 0 mm 3 mps 634 mmHg 24%

    Day after tomorrow, 22 September, Sunday

    Time Temperature Precipitation Wind Pressure Humidity
    00:00 +18°C° 0 mm 3 mps 634 mmHg 28%
    01:00 +16°C° 0 mm 3 mps 633 mmHg 31%
    02:00 +15°C° 0 mm 2 mps 632 mmHg 34%
    03:00 +14°C° 0 mm 2 mps 632 mmHg 37%
    04:00 +13°C° 0 mm 2 mps 632 mmHg 40%
    05:00 +12°C° 0 mm 2 mps 632 mmHg 43%
    06:00 +14°C° 0 mm 3 mps 633 mmHg 38%
    07:00 +17°C° 0 mm 4 mps 634 mmHg 34%
    08:00 +20°C° 0 mm 5 mps 635 mmHg 29%
    09:00 +22°C° 0 mm 6 mps 635 mmHg 25%
    10:00 +24°C° 0 mm 7 mps 636 mmHg 21%
    11:00 +28°C° 0 mm 8 mps 636 mmHg 17%
    12:00 +29°C° 0 mm 9 mps 636 mmHg 15%
    13:00 +31°C° 0 mm 10 mps 635 mmHg 13%
    14:00 +32°C° 0 mm 10 mps 635 mmHg 11%
    15:00 +29°C° 0 mm 11 mps 635 mmHg 13%
    16:00 +28°C° 0 mm 11 mps 634 mmHg 16%
    17:00 +27°C° 0 mm 11 mps 634 mmHg 19%
    18:00 +23°C° 0.1 mm 9 mps 634 mmHg 27%
    19:00 +20°C° 0.1 mm 6 mps 634 mmHg 34%
    20:00 +18°C° 0.1 mm 3 mps 634 mmHg 42%
    21:00 +16°C° 0 mm 3 mps 634 mmHg 47%
    22:00 +14°C° 0 mm 3 mps 634 mmHg 52%
    23:00 +12°C° 0 mm 3 mps 634 mmHg 58%

    23 September, Monday

    Time Temperature Precipitation Wind Pressure Humidity
    00:00 +11°C° 0 mm 3 mps 634 mmHg 62%
    01:00 +9°C° 0 mm 2 mps 633 mmHg 67%
    02:00 +8°C° 0 mm 2 mps 633 mmHg 71%
    03:00 +7°C° 0 mm 2 mps 633 mmHg 74%
    04:00 +7°C° 0 mm 2 mps 633 mmHg 76%
    05:00 +7°C° 0 mm 1 mps 633 mmHg 79%
    06:00 +8°C° 0.4 mm 2 mps 634 mmHg 73%
    07:00 +10°C° 0.4 mm 2 mps 635 mmHg 67%
    08:00 +12°C° 0.4 mm 2 mps 637 mmHg 61%
    09:00 +12°C° 0.7 mm 2 mps 636 mmHg 65%
    10:00 +12°C° 0.7 mm 2 mps 636 mmHg 69%
    11:00 +12°C° 0.7 mm 2 mps 636 mmHg 73%
    12:00 +15°C° 0.1 mm 2 mps 637 mmHg 62%
    13:00 +17°C° 0.1 mm 2 mps 637 mmHg 52%
    14:00 +20°C° 0.1 mm 2 mps 638 mmHg 41%
    15:00 +20°C° 0 mm 2 mps 638 mmHg 39%
    16:00 +21°C° 0 mm 2 mps 638 mmHg 37%
    17:00 +21°C° 0 mm 2 mps 638 mmHg 34%
    18:00 +19°C° 0 mm 1 mps 638 mmHg 44%
    19:00 +16°C° 0 mm 1 mps 638 mmHg 53%
    20:00 +13°C° 0 mm 1 mps 638 mmHg 62%
    21:00 +12°C° 0 mm 1 mps 638 mmHg 67%
    22:00 +11°C° 0 mm 1 mps 638 mmHg 71%
    23:00 +10°C° 0 mm 1 mps 638 mmHg 75%

    24 September, Tuesday

    Time Temperature Precipitation Wind Pressure Humidity
    00:00 +9°C° 0 mm 0 mps 638 mmHg 78%
    01:00 +8°C° 0 mm 0 mps 638 mmHg 81%
    02:00 +8°C° 0 mm 0 mps 638 mmHg 84%
    03:00 +7°C° 0 mm 0 mps 637 mmHg 84%
    04:00 +7°C° 0 mm 0 mps 637 mmHg 84%
    05:00 +6°C° 0 mm 0 mps 637 mmHg 85%
    06:00 +9°C° 0 mm 1 mps 638 mmHg 77%
    07:00 +11°C° 0 mm 1 mps 639 mmHg 69%
    08:00 +13°C° 0 mm 2 mps 640 mmHg 61%
    09:00 +15°C° 0 mm 2 mps 640 mmHg 54%
    10:00 +17°C° 0 mm 2 mps 640 mmHg 47%
    11:00 +20°C° 0 mm 2 mps 640 mmHg 40%
    12:00 +20°C° 0 mm 2 mps 640 mmHg 37%
    13:00 +21°C° 0 mm 3 mps 640 mmHg 33%
    14:00 +22°C° 0 mm 3 mps 639 mmHg 30%
    15:00 +22°C° 0 mm 3 mps 639 mmHg 30%
    16:00 +22°C° 0 mm 4 mps 639 mmHg 30%
    17:00 +21°C° 0 mm 4 mps 639 mmHg 29%
    18:00 +19°C° 0 mm 4 mps 639 mmHg 33%
    19:00 +17°C° 0 mm 3 mps 640 mmHg 37%
    20:00 +14°C° 0 mm 3 mps 640 mmHg 40%
    21:00 +13°C° 0 mm 3 mps 640 mmHg 46%
    22:00 +11°C° 0 mm 3 mps 640 mmHg 52%
    23:00 +10°C° 0 mm 2 mps 640 mmHg 57%

    25 September, Wednesday

    Time Temperature Precipitation Wind Pressure Humidity
    00:00 +9°C° 0 mm 2 mps 640 mmHg 64%
    01:00 +8°C° 0 mm 2 mps 640 mmHg 70%
    02:00 +8°C° 0 mm 1 mps 639 mmHg 77%
    03:00 +8°C° 0 mm 1 mps 639 mmHg 78%
    04:00 +6°C° 0 mm 2 mps 639 mmHg 80%
    05:00 +6°C° 0 mm 2 mps 639 mmHg 81%
    06:00 +8°C° 0 mm 2 mps 640 mmHg 70%
    07:00 +10°C° 0 mm 2 mps 641 mmHg 60%
    08:00 +13°C° 0 mm 2 mps 642 mmHg 49%
    09:00 +15°C° 0 mm 2 mps 643 mmHg 40%
    10:00 +18°C° 0 mm 2 mps 644 mmHg 31%
    11:00 +20°C° 0 mm 2 mps 644 mmHg 22%
    12:00 +22°C° 0 mm 1 mps 644 mmHg 18%
    13:00 +23°C° 0 mm 1 mps 644 mmHg 14%
    14:00 +25°C° 0 mm 1 mps 644 mmHg 10%
    15:00 +25°C° 0 mm 2 mps 644 mmHg 10%
    16:00 +24°C° 0 mm 3 mps 644 mmHg 10%
    17:00 +24°C° 0 mm 3 mps 643 mmHg 10%
    18:00 +20°C° 0 mm 3 mps 643 mmHg 15%
    19:00 +17°C° 0 mm 4 mps 643 mmHg 21%
    20:00 +13°C° 0 mm 4 mps 642 mmHg 26%
    21:00 +11°C° 0 mm 3 mps 642 mmHg 28%
    22:00 +10°C° 0 mm 2 mps 642 mmHg 29%
    23:00 +8°C° 0 mm 2 mps 641 mmHg 31%
    Show more